• MPC Preparation (Info)

  • MPEC 2016-L60 : 2016 LV8

    The following Minor Planet Electronic Circular may be linked-to from your own Web pages, but must not otherwise be redistributed electronically.

    A form allowing access to any MPEC is at the bottom of this page.


    Read MPEC 2016-L59 Read MPEC 2016-L61


    M.P.E.C. 2016-L60                                Issued 2016 June 7, 15:12 UT
    
         The Minor Planet Electronic Circulars contain information on unusual
             minor planets and routine data on comets.  They are published
        on behalf of Division F of the International Astronomical Union by the
              Minor Planet Center, Smithsonian Astrophysical Observatory,
                              Cambridge, MA 02138, U.S.A.
    
                 Prepared using the Tamkin Foundation Computer Network
    
                                  MPC@CFA.HARVARD.EDU
                URL https://www.minorplanetcenter.net/    ISSN 1523-6714
    
                                       2016 LV8
    
    Observations:
         K16L08V* C2016 06 03.46463 16 03 32.385+05 05 30.04         21.2 wLEL060F51
         K16L08V  C2016 06 03.47582 16 03 30.933+05 05 42.16         21.0 wLEL060F51
         K16L08V  C2016 06 03.48699 16 03 29.512+05 05 53.91         21.3 wLEL060F51
         K16L08V  C2016 06 03.49817 16 03 28.088+05 06 05.75         21.4 wLEL060F51
         K16L08V HC2016 06 04.21443 16 01 59.47 +05 18 46.2                oEL060691
         K16L08V HC2016 06 04.22348 16 01 58.35 +05 18 56.0                oEL060691
         K16L08V HC2016 06 04.23256 16 01 57.08 +05 19 05.4                oEL060691
         K16L08V _C2016 06 04.52791616 01 19.376+05 24 20.59         20.9 RtEL060568
         K16L08V _C2016 06 04.53102416 01 18.974+05 24 23.86         21.0 RtEL060568
         K16L08V _C2016 06 04.53309416 01 18.708+05 24 26.06         21.0 RtEL060568
         K16L08V  C2016 06 05.29882 15 59 42.39 +05 37 51.6          21.3 VoEL060691
         K16L08V  C2016 06 05.30564 15 59 41.51 +05 37 58.1          21.3 VoEL060691
         K16L08V  C2016 06 05.31246 15 59 40.55 +05 38 06.0          21.5 VoEL060691
         K16L08V  C2016 06 07.22920 15 55 34.93 +06 11 14.1          21.8 RoEL060926
         K16L08V  C2016 06 07.23797 15 55 33.78 +06 11 23.9          21.5 RoEL060926
         K16L08V  C2016 06 07.24997 15 55 32.14 +06 11 36.0          21.5 RoEL060926
         K16L08V HC2016 06 07.27997 15 55 28.20 +06 12 05.4          21.4 VoEL060691
         K16L08V HC2016 06 07.28958 15 55 26.88 +06 12 15.8          21.4 VoEL060691
         K16L08V HC2016 06 07.29918 15 55 25.55 +06 12 25.4          21.5 VoEL060691
    
    Observer details:
    568 Mauna Kea.  Observers R. J. Wainscoat, R. Weryk, P. Forshay.  Measurers
        M. Micheli, R. J. Wainscoat.  3.6-m Canada-France-Hawaii Telescope + CCD.
    691 Steward Observatory, Kitt Peak.  Observers A. F. Tubbiolo, T. H. Bressi,
        J. A. Larsen.  0.9-m f/3 reflector + CCD.
    926 Tenagra II Observatory.  Observers M. Schwartz, P. R. Holvorcem.  Measurer
        M. Schwartz.  0.81-m f/7 Ritchey-Chretien + CCD.
    F51 Pan-STARRS 1, Haleakala.  Observers B. Gibson, T. Goggia, N. Primak,
        A. Schultz, M. Willman.  Measurers K. Chambers, S. Chastel, L. Denneau,
        H. Flewelling, M. Huber, E. Lilly, E. Magnier, R. Wainscoat, C. Waters,
        R. Weryk.  1.8-m Ritchey-Chretien + CCD.
    
    Orbital elements:
    2016 LV8                                                 Earth MOID = 0.2123 AU
    Epoch 2016 July 31.0 TT = JDT 2457600.5                 MPC
    M 347.69349              (2000.0)            P               Q
    n   0.24094041     Peri.  179.16608     +0.99475231     -0.09897439
    a   2.5577786      Node   186.68239     +0.09253311     +0.97841116
    e   0.7487076      Incl.   12.87104     +0.04365164     +0.18142679
    P   4.09           H   19.7           G   0.15           U   8
    Residuals in seconds of arc
    160603 F51  0.2+  0.0     160604 568  0.1+  0.1-    160607 926  0.3+  0.9+
    160603 F51  0.1-  0.2+    160604 568  0.1+  0.1-    160607 926  0.3-  0.7+
    160603 F51  0.0   0.1+    160604 568  0.1+  0.0     160607 691  0.7+  0.6-
    160603 F51  0.1+  0.0     160605 691  0.1+  0.5+    160607 691  0.2+  0.0
    160604 691  0.2+  0.3-    160605 691  0.3+  0.2-    160607 691  0.5-  0.2-
    160604 691  0.9+  0.1-    160605 691  0.7-  0.6+
    160604 691  0.6-  0.4-    160607 926  0.1-  0.1+
    
    Ephemeris:
    2016 LV8                 a,e,i = 2.56, 0.75, 13                  q = 0.6428
    Date    TT    R. A. (2000) Decl.     Delta      r     Elong.  Phase     V
    2016 05 08    16 44 06.4 -02 42 46   1.0791  2.0211   150.8    14.1    22.2
    ...
    2016 05 23    16 24 52.9 +01 36 29   0.8964  1.8707   157.0    12.2    21.6
    ...
    2016 05 31    16 10 30.8 +04 03 04   0.8218  1.7874   153.5    14.7    21.4
    ...
    2016 06 06    15 58 13.2 +05 50 08   0.7764  1.7234   148.1    18.1    21.3
    2016 06 07    15 56 04.6 +06 07 23   0.7697  1.7127   147.0    18.8    21.3
    2016 06 08    15 53 54.7 +06 24 24   0.7632  1.7019   145.9    19.5    21.3
    ...
    2016 06 14    15 40 36.2 +08 00 38   0.7289  1.6363   138.8    24.1    21.2
    ...
    2016 06 22    15 22 41.4 +09 48 50   0.6939  1.5469   128.5    30.9    21.2
    ...
    2016 07 07    14 52 12.8 +11 55 04   0.6496  1.3736   109.0    44.4    21.2
    
    A. U. Tomatic                (C) Copyright 2016 MPC           M.P.E.C. 2016-L60
    

    Read MPEC 2016-L59 Read MPEC 2016-L61


    MPEC number:

    Enter an MPEC number in one of the following forms:

    • 1997-B01 (the full form)
    • J97B01 (the packed version of the full form)
    • B01 (the abbreviated form)